Location: Buckland
(65.9785°N, 161.1281°W)
Time: 06:16:03
(UTC+00:00)

Transit 2A Rocket - Pass Details

Date: 04 December 2020
Orbit: 592 x 910 km, 66.7° (Epoch: 21 January)

Event Time Altitude Azimuth Distance (km) Brightness Sun altitude
Exits shadow 18:31:52 11° 293° (WNW) 2,187 6.7 -9.4°
Maximum altitude 18:36:35 49° 221° (SW) 915 5.4 -9.0°
Drops below altitude 10° 18:41:08 10° 147° (SSE) 2,089 8.6 -8.7°
Sets 18:43:23 0° 142° (SE) 2,957 9.9 -8.5°
